Pau Pyrénées Airport

Airport
ICAO code: 
LFBP
IATA Code: 
PUF
Summary
ICAO Region: 
EUR
Territory: 
Location: 
Uzein, Aquitaine
Serving: 
Pau
Elevation: 
616 ft
Coordinates: 
Aerial View: 
43° 22' 45.809" N, 0° 25' 6.432" W
Metar
Observation
LFBP 060500Z AUTO 25007KT 9999 -RA FEW019/// SCT030/// OVC037/// ///CB 06/05 Q1021 TEMPO 30015G25KT 4000 SHRA BECMG BKN040
Station
Pau
Date/Time
2021-12-06 05:00:00
Wind direction
250°
Wind speed
07 kts
Lowest cloud amount
few clouds
Temperature
6°C
Dew point
5°C
Humidity
93%
QNH
1021 hPa
Weather condition
light rain

Description

Pau Pyrénées Airport (French: Aéroport Pau Pyrénées) is an airport serving Pau, France. It is located 10 km northwest of Pau in Uzein.

Climatology

Temperate Marine climate/Oceanic climate (Köppen climate classification Cfb). Moderately cool summer and comparatively warm winter with a temperature range of only 14°C. Prevailing south-westerly winds from the Atlantic Ocean.

Runways

Designator Length Width Surface Rops
13/31 2500 45 ASP Yes/Yes
Airport map: 
Aerial View: 

SKYbrary Partners:

Safety knowledge contributed by: